• Processing (Info)

  • MPEC 2013-O14 : 2013 NF19

    The following Minor Planet Electronic Circular may be linked-to from your own Web pages, but must not otherwise be redistributed electronically.

    A form allowing access to any MPEC is at the bottom of this page.


    Read MPEC 2013-O13 Read MPEC 2013-O15


    M.P.E.C. 2013-O14                                Issued 2013 July 17, 23:48 UT
    
         The Minor Planet Electronic Circulars contain information on unusual
             minor planets and routine data on comets.  They are published
       on behalf of Commission 20 of the International Astronomical Union by the
              Minor Planet Center, Smithsonian Astrophysical Observatory,
                              Cambridge, MA 02138, U.S.A.
    
                 Prepared using the Tamkin Foundation Computer Network
    
                                  MPC@CFA.HARVARD.EDU
                URL https://www.minorplanetcenter.net/    ISSN 1523-6714
    
                                       2013 NF19
    
    Observations:
         K13N19F* C2013 07 15.55841 20 20 01.822+25 34 41.68         19.8 rLEO014F51
         K13N19F  C2013 07 15.56839 20 19 55.423+25 34 08.26         19.9 rLEO014F51
         K13N19F KC2013 07 16.27547020 12 56.55 +24 56 00.9          19.6 VqEO014H21
         K13N19F KC2013 07 16.27965520 12 54.15 +24 55 48.2          19.6 VqEO014H21
         K13N19F KC2013 07 16.28365020 12 51.81 +24 55 35.4          19.5 VqEO014H21
         K13N19F KC2013 07 16.28763020 12 49.48 +24 55 23.5          19.6 VqEO014H21
         K13N19F KC2013 07 16.95172 20 06 51.22 +24 21 08.8                tEO014595
         K13N19F KC2013 07 16.96469 20 06 44.32 +24 20 29.7          19.9 VtEO014595
         K13N19F IC2013 07 16.97929 20 06 37.06 +24 19 41.9                qEO014J95
         K13N19F IC2013 07 16.98685 20 06 33.06 +24 19 18.6                qEO014J95
         K13N19F KC2013 07 16.99394 20 06 29.40 +24 18 57.0          19.6 RqEO014J95
         K13N19F KC2013 07 17.20083 20 04 45.40 +24 08 45.8          19.9 RqEO014H36
         K13N19F KC2013 07 17.20160220 04 44.70 +24 08 43.4          19.5 VqEO014H21
         K13N19F KC2013 07 17.20476320 04 43.08 +24 08 34.2          19.0 VqEO014H21
         K13N19F KC2013 07 17.20802520 04 41.40 +24 08 24.5          19.1 VqEO014H21
         K13N19F KC2013 07 17.21119 20 04 40.09 +24 08 15.7          20.1 RqEO014H36
         K13N19F KC2013 07 17.21131520 04 39.73 +24 08 14.5          19.3 VqEO014H21
    
    Observer details:
    595 Farra d'Isonzo.  Observers M. Coccolo, E. Pettarin.  Measurer E. Pettarin.
        0.61-m f/4.0 reflector + CCD.
    F51 Pan-STARRS 1, Haleakala.  Observers N. Primak, A. Schultz, T. Goggia,
        K. Chambers.  Measurer PS1 Science Consortium.  1.8-m Ritchey-Chretien
        + CCD.
    H21 Astronomical Research Observatory, Westfield.  Observer R. Holmes.
        Measurers T. Vorobjov, L. Buzzi, S. Foglia.  0.61-m f/4.0 astrograph + CCD,
        0.81-m f/4.0 astrograph + CCD.
    H36 Sandlot Observatory, Scranton.  Observer G. Hug.  0.56-m reflector + CCD.
    J95 Great Shefford.  Observer P. Birtwhistle.  0.40-m f/6.0 Schmidt-Cassegrain
        + CCD.
    
    Orbital elements:
    2013 NF19                                           PHA, Earth MOID = 0.0382 AU
    Epoch 2013 Apr. 18.0 TT = JDT 2456400.5                 MPC
    M 347.32622              (2000.0)            P               Q
    n   0.44114663     Peri.  262.98894     -0.88285914     +0.12785176
    a   1.7090210      Node   283.57148     +0.10320685     -0.88589067
    e   0.7038480      Incl.   27.70249     -0.45815727     -0.44592784
    P   2.23           H   21.5           G   0.15           U   9
    Residuals in seconds of arc
    130715 F51  0.3-  0.2-    130716 595  0.4+  0.3-    130717 H21  0.0   0.1-
    130715 F51  0.0   0.1-    130716 595  0.2+  0.3-    130717 H21  0.1+  0.0
    130716 H21  0.1-  0.8-    130716 J95  0.5-  0.3+    130717 H21  0.1+  0.0
    130716 H21  0.5+  0.3-    130716 J95  0.7-  0.3-    130717 H36  0.0   0.7+
    130716 H21  0.3+  0.5-    130716 J95  0.3+  0.7-    130717 H21  0.4+  0.4-
    130716 H21  0.1+  0.1+    130717 H36  0.1-  0.4+
    
    Ephemeris:
    2013 NF19                a,e,i = 1.71, 0.70, 28                  q = 0.5061
    Date    TT    R. A. (2000) Decl.     Delta      r     Elong.  Phase     V
    2013 06 17    05 00 38.4 +01 09 19   0.2684  0.7793    24.3   147.5    26.1
    ...
    2013 07 02    02 03 34.0 +23 11 49   0.1072  0.9740    63.8   110.6    20.8
    ...
    2013 07 10    21 50 11.7 +30 55 27   0.1240  1.0756   115.3    58.7    19.2
    ...
    2013 07 16    20 15 36.1 +25 10 51   0.1848  1.1497   132.7    40.5    19.7
    2013 07 17    20 06 26.3 +24 19 02   0.1966  1.1619   134.2    38.9    19.8
    2013 07 18    19 58 25.4 +23 30 21   0.2087  1.1740   135.4    37.5    20.0
    ...
    2013 07 24    19 26 22.3 +19 34 39   0.2858  1.2454   138.9    32.4    20.6
    ...
    2013 08 01    19 05 53.9 +15 57 48   0.3970  1.3373   138.2    30.4    21.4
    ...
    2013 08 16    18 53 45.7 +11 24 31   0.6240  1.4996   131.3    30.5    22.7
    
    A. U. Tomatic                (C) Copyright 2013 MPC           M.P.E.C. 2013-O14
    

    Read MPEC 2013-O13 Read MPEC 2013-O15


    MPEC number:

    Enter an MPEC number in one of the following forms:

    • 1997-B01 (the full form)
    • J97B01 (the packed version of the full form)
    • B01 (the abbreviated form)